TimeCST,TemperatureF,Dew PointF,Humidity,Sea Level PressureIn,VisibilityMPH,Wind Direction,Wind SpeedMPH,Gust SpeedMPH,PrecipitationIn,Events,Conditions,WindDirDegrees,DateUTC
12:53 AM,3.0,-2.9,76,30.34,10.0,SE,4.6,-,N/A,,Clear,130,2013-12-30 06:53:00
1:53 AM,5.0,-2.0,73,30.34,10.0,Calm,Calm,-,N/A,,Clear,0,2013-12-30 07:53:00
2:53 AM,5.0,-2.0,73,30.33,10.0,South,5.8,-,N/A,,Clear,170,2013-12-30 08:53:00
3:53 AM,8.1,1.0,73,30.30,10.0,South,6.9,-,N/A,,Clear,180,2013-12-30 09:53:00
4:53 AM,10.9,1.9,67,30.29,10.0,South,5.8,-,N/A,,Partly Cloudy,170,2013-12-30 10:53:00
5:53 AM,12.9,3.9,67,30.30,10.0,SSW,4.6,-,N/A,,Partly Cloudy,200,2013-12-30 11:53:00
6:53 AM,15.1,3.9,61,30.30,10.0,South,5.8,-,N/A,,Overcast,180,2013-12-30 12:53:00
7:53 AM,16.0,3.9,59,30.28,10.0,South,11.5,-,N/A,,Overcast,190,2013-12-30 13:53:00
8:53 AM,17.1,5.0,59,30.27,10.0,South,12.7,-,N/A,,Overcast,180,2013-12-30 14:53:00
9:53 AM,18.0,6.1,60,30.30,10.0,SSW,12.7,-,N/A,,Mostly Cloudy,200,2013-12-30 15:53:00
10:53 AM,21.9,8.1,55,30.27,10.0,South,11.5,-,N/A,,Clear,190,2013-12-30 16:53:00
11:53 AM,26.1,10.0,51,30.27,10.0,SW,13.8,-,N/A,,Clear,230,2013-12-30 17:53:00
12:53 PM,28.0,15.1,58,30.24,10.0,SSW,12.7,-,N/A,,Clear,210,2013-12-30 18:53:00
1:53 PM,32.0,18.0,56,30.22,10.0,SSW,10.4,-,N/A,,Clear,200,2013-12-30 19:53:00
2:53 PM,35.1,21.9,59,30.22,10.0,South,11.5,-,N/A,,Clear,190,2013-12-30 20:53:00
3:53 PM,36.0,23.0,59,30.22,10.0,South,11.5,-,N/A,,Clear,190,2013-12-30 21:53:00
4:53 PM,35.1,23.0,61,30.22,10.0,SW,5.8,-,N/A,,Clear,220,2013-12-30 22:53:00
5:53 PM,32.0,21.9,66,30.24,10.0,SSW,11.5,-,N/A,,Clear,210,2013-12-30 23:53:00
6:53 PM,28.9,21.0,72,30.26,10.0,South,6.9,-,N/A,,Clear,170,2013-12-31 00:53:00
7:53 PM,30.9,21.0,67,30.30,10.0,Calm,Calm,-,N/A,,Clear,0,2013-12-31 01:53:00
8:53 PM,26.1,19.9,78,30.32,10.0,Calm,Calm,-,N/A,,Clear,0,2013-12-31 02:53:00
9:53 PM,26.1,19.0,75,30.34,10.0,Calm,Calm,-,N/A,,Clear,0,2013-12-31 03:53:00
10:53 PM,21.0,17.1,85,30.36,10.0,South,4.6,-,N/A,,Clear,170,2013-12-31 04:53:00
11:53 PM,21.0,16.0,81,30.36,10.0,Calm,Calm,-,N/A,,Clear,0,2013-12-31 05:53:00